User: anonymous   Login
Location: Unspecified
(0.0000°N, 0.0000°E)
Time: 01:08:00
(UTC+02:00)
Language:

Cosmos 1092 Rocket - Orbit

View from above orbital plane
View from above orbital plane
View from above satellite
View from above satellite

Ground track
Ground track

The orbit data is extracted from the following two-line orbital elements,

1 11327U 79030B   14296.63382524  .00000032  00000-0  16998-4 0  8674
2 11327 082.9472 294.2665 0027592 011.4188 126.0301 13.76945828785983
Epoch (UTC): 23 October 2014 15:12:42
Eccentricity: 0.0027592
inclination: 82.9472°
perigee height: 954 km
apogee height: 995 km
right ascension of ascending node: 294.2665°
argument of perigee: 11.4188°
revolutions per day: 13.76945828
mean anomaly at epoch: 126.0301°
orbit number at epoch: 78598

The dashed part of the orbit path shows where the satellite is in the earth's shadow,  

DLR